Location: Sihaung
(22.8641°N, 94.0549°E)
Time: 17:00:15
(UTC+00:00)

RESURS DK-1 - Pass Details

Date: 03 March 2021
Orbit: 555 x 562 km, 69.9° (Epoch: 13 April)

Event Time Altitude Azimuth Distance (km) Brightness Sun altitude
Rises 23:22:17 0° 179° (S) 2,717 5.9 -10.1°
Reaches altitude 10° 23:24:38 10° 168° (SSE) 1,825 5.2 -9.6°
Maximum altitude 23:28:16 31° 105° (ESE) 975 4.5 -8.8°
Drops below altitude 10° 23:31:54 10° 43° (NE) 1,832 5.6 -7.9°
Sets 23:34:16 0° 33° (NNE) 2,729 6.3 -7.4°
